CAPE
1318 1380 1289 1429 986 1087 970 867 633 727 696 844 550 705 675 805 744 272 402 439 397 292 273 414 266 491 732 1149 1224 1056 1233 1187 1185 1194 1162 928 454 944 1085 1054 1273 879 531 428 439 552 472 414 362 297 223 453 532 481 313 212 148 134 116 103 37 7 5 2 0 0 0 0 0 0 0 0 0 0 0 0 0 0 0 0 0 0 0 0 0
1269 1210 1229 1144 1176 989 1054 1436 1181 847 1086 1256 1131 1010 766 783 647 475 309 486 328 230 273 255 381 600 342 472 848 1040 1131 1169 1017 916 748 1048 621 794 1173 1310 1163 1178 1159 504 390 471 596 440 415 387 188 146 436 674 481 389 338 290 190 134 76 46 19 2 0 0 0 0 0 0 0 0 0 0 0 0 0 0 0 0 0 0 0 0 0
1407 1129 1249 1109 1077 1052 1189 1253 1560 1411 1145 988 974 1120 1002 838 697 570 391 454 449 174 234 208 436 422 690 614 446 1056 692 1008 1005 891 858 1093 548 541 936 1313 1301 1152 996 1088 633 246 248 336 443 366 270 198 245 856 609 428 361 383 326 213 118 65 44 28 4 0 0 0 0 0 0 0 0 0 0 0 0 0 0 0 0 0 0 0 0
1302 1263 1228 1714 1520 1518 1108 1400 1574 1160 937 936 1066 1182 1224 1164 1080 690 767 950 367 182 95 321 282 184 355 296 647 697 797 1020 725 899 986 606 996 559 503 760 1238 1117 1106 1041 999 650 309 350 395 330 352 220 185 239 710 384 180 171 560 338 207 111 96 67 20 14 0 0 0 0 0 0 0 0 0 0 0 0 0 0 0 0 0 0 0
1344 1150 1092 1427 1553 1448 1331 1331 1454 1531 1042 946 990 1199 1560 1659 1518 826 1093 821 508 376 310 130 449 420 270 500 668 493 504 605 585 959 938 959 894 1229 961 531 786 1148 933 916 1019 1107 783 327 370 411 393 343 190 242 110 146 91 73 684 528 350 239 177 114 60 17 18 0 0 0 0 0 0 0 0 0 0 0 0 0 0 0 0 0 0
862 1075 902 1397 1495 1200 967 1142 1161 1490 940 755 1115 840 1282 1565 1282 865 1132 1045 836 392 337 540 692 465 569 332 345 404 406 510 502 795 918 1799 1267 618 1423 1423 745 709 869 1222 1004 942 1105 860 764 631 479 362 260 225 247 212 178 110 281 786 524 409 348 208 143 71 30 6 0 0 0 0 0 0 0 0 0 0 0 0 0 0 0 0 0
776 890 1146 1244 1298 1227 1111 749 1434 1238 993 752 1037 947 1281 1660 1145 972 1038 688 497 394 449 354 491 571 706 657 321 321 451 372 416 915 692 1411 1232 1041 1372 1260 1534 1370 864 872 1304 1066 1248 1267 1054 980 881 658 391 382 290 193 245 230 270 980 738 540 436 343 252 190 112 63 3 0 0 0 0 0 0 0 0 0 0 0 0 0 0 0 0
892 843 1112 1232 1223 1106 1027 798 988 919 838 812 768 869 946 987 788 639 448 684 673 1106 879 722 621 657 742 623 694 486 986 976 809 770 821 875 1004 837 1184 1314 1277 1171 1367 1187 849 967 1062 1293 1336 1309 1104 959 853 726 476 383 376 326 343 443 980 724 463 455 387 321 256 148 96 15 20 1 0 0 0 0 0 0 0 0 0 0 0 0 0
1022 957 1123 1251 1250 980 590 648 832 924 672 791 940 874 905 851 691 435 565 462 548 729 769 1080 1116 1504 1399 1602 1743 1101 1714 1035 985 859 1134 1391 1387 1759 1037 1107 1054 1038 1228 1158 1449 1069 1028 1356 1263 1372 1403 1232 1130 1037 1027 1120 1130 890 578 492 864 940 712 608 505 429 346 326 200 95 72 8 3 0 1 2 0 0 0 0 0 0 0 0 0
1244 995 973 1337 1206 1018 680 589 688 507 890 810 981 966 809 728 832 603 644 596 593 817 1034 925 1077 1170 1521 1769 1746 924 1279 1323 997 1026 1092 1278 1239 1270 920 915 946 753 1136 1131 1240 1193 1224 920 983 1366 1194 1134 1107 1262 1048 976 1056 1163 1083 886 814 961 938 985 696 577 421 417 352 306 212 116 33 20 5 2 1 0 0 0 0 0 0 0 0
1338 1266 1387 1212 1236 1223 1116 983 692 718 604 587 672 755 607 686 524 718 726 528 806 1268 1184 1000 1024 1026 1296 1638 1643 1612 860 1214 1290 1590 1407 1458 1216 1158 928 899 1002 900 956 993 977 866 1158 900 1041 988 937 941 1276 1426 1440 1392 1262 1250 1022 922 934 922 1071 990 788 706 551 482 502 488 390 319 160 66 34 5 1 0 0 0 0 1 0 0 0
1349 1532 1505 1296 1087 1070 957 941 682 1009 720 687 528 645 558 613 674 763 663 783 617 889 1265 833 888 1141 1073 1263 1270 1510 818 953 1476 1411 1083 1334 1446 1262 1166 1332 1244 1122 765 1041 671 784 925 995 950 1020 973 1007 1174 1171 1302 1240 1091 1238 1106 1125 1143 1108 1104 1052 992 1015 979 761 589 535 579 446 334 186 101 66 19 1 1 0 0 0 0 0 0
1252 1584 1690 1612 1448 1512 1082 972 867 842 730 755 714 715 876 1112 1244 688 776 658 888 992 1124 1568 1171 881 1291 1305 1247 1115 632 946 1274 1107 1216 1227 1237 1317 1220 1073 1193 776 840 831 776 898 1067 776 948 1165 1199 1004 1091 1196 995 858 622 479 431 485 777 1122 1155 1092 1093 1107 890 820 830 943 874 718 562 337 205 173 106 59 28 2 0 0 0 0 0
1132 1492 1813 1760 1404 985 1279 1386 1210 1377 1493 1520 1330 1025 843 1002 1007 1072 1006 828 912 1059 987 769 684 699 1023 749 683 856 752 569 769 818 786 1032 1115 1072 786 921 828 962 1111 680 797 1041 892 919 1059 982 1022 1116 831 1118 854 607 201 70 257 559 684 971 1031 961 1036 1056 988 940 926 941 963 908 850 584 525 309 231 142 120 63 0 0 0 0 0
1021 1296 1363 1489 1788 1520 1210 1158 1147 1233 1441 1484 1080 711 574 817 895 1112 880 854 837 1058 1121 831 402 346 533 692 416 561 599 745 581 660 843 877 665 615 657 635 354 1080 982 1354 915 993 832 636 935 1137 812 689 751 970 632 0 2 198 297 312 423 640 830 1124 1089 936 966 969 938 1020 1001 977 915 810 576 499 386 270 267 226 76 4 0 0 0
482 504 780 1131 1657 1724 1369 1310 1149 1023 698 810 922 800 816 950 946 970 664 907 744 853 1110 1223 594 942 470 251 416 788 501 784 824 754 859 634 687 201 1115 96 208 353 509 505 451 374 246 335 459 450 462 406 230 587 467 129 37 47 0 1 6 109 294 679 749 776 958 991 958 998 990 1035 1012 876 855 699 482 327 275 213 139 122 0 0 0
438 386 328 574 638 840 1223 1415 1414 1494 1175 937 869 677 875 823 871 882 972 1106 884 1093 1235 1533 1370 934 989 179 206 327 183 506 481 364 817 882 586 542 337 284 201 558 402 186 222 230 97 142 186 130 151 162 531 1060 328 300 275 274 0 0 0 0 0 23 222 532 492 502 607 912 1030 874 952 1028 923 866 753 628 424 236 275 216 91 20 0
407 318 194 396 395 219 479 301 1052 1497 1218 1068 871 1071 1214 1299 1367 1343 412 1323 869 832 940 1191 1017 992 1042 1352 1064 555 375 341 345 508 428 1204 365 216 91 61 9 58 44 46 12 0 0 39 10 27 121 209 298 17 0 0 0 0 0 0 0 0 0 0 0 45 381 630 667 641 703 699 723 805 1038 858 684 653 576 384 394 275 204 160 57
326 320 408 511 586 527 408 356 217 372 436 926 1118 1149 1025 904 1160 1020 1253 1381 1293 1052 973 972 1206 1021 899 839 945 724 877 606 710 389 351 118 25 23 1 1 0 0 0 0 0 0 0 0 0 0 31 64 6 10 1 0 0 0 0 0 0 0 0 0 0 0 90 187 248 289 470 598 676 685 707 886 846 806 545 510 420 400 380 279 184
151 275 350 391 322 402 392 424 218 68 55 94 394 701 981 954 1014 1216 1180 1395 1539 1185 981 1051 594 903 1310 831 667 1011 821 875 526 985 109 90 14 0 0 0 0 0 0 0 0 0 0 0 0 0 0 0 0 0 0 0 0 0 0 0 0 0 0 0 0 0 0 346 622 677 638 556 619 469 537 671 586 705 678 633 564 454 376 393 284
296 98 364 167 155 209 320 317 307 163 41 178 757 1163 1163 1337 985 1201 1325 1146 1458 1342 1212 1130 1078 854 930 853 827 978 712 610 849 557 671 39 0 3 5 0 0 0 0 0 0 0 0 0 0 0 0 0 0 0 0 0 0 0 0 0 0 0 0 0 0 0 0 27 265 512 433 360 398 272 322 372 486 518 725 655 465 452 395 430 363
106 220 190 174 199 204 283 380 337 172 104 340 747 1216 1497 1414 1378 1339 1474 1384 1376 900 936 727 758 648 861 820 764 1181 550 730 523 430 489 91 26 8 1 0 0 0 0 0 0 0 0 0 0 0 0 0 0 0 0 0 0 0 0 0 0 0 0 0 0 0 0 0 0 11 20 110 271 302 314 260 303 400 444 437 511 479 354 335 288
141 155 224 61 42 174 399 320 307 181 102 72 115 109 397 992 1370 1380 1521 1464 1199 899 469 420 692 895 711 873 905 746 1180 867 761 868 688 63 21 18 8 2 0 0 0 0 0 0 0 0 0 0 0 0 0 0 0 0 0 0 0 0 0 0 0 0 0 0 0 0 0 0 0 0 0 0 0 0 105 191 238 401 475 475 412 303 281
143 129 164 83 24 187 292 324 170 186 99 88 51 42 48 220 562 915 1068 1264 1331 979 454 663 806 730 901 609 774 584 804 742 853 985 485 681 136 52 2 4 0 0 0 0 0 0 0 0 0 0 0 0 0 0 0 0 0 0 0 0 0 0 0 0 0 0 0 0 0 0 0 0 0 0 0 37 156 126 186 208 167 208 228 213 302
136 121 67 13 0 49 134 203 214 210 149 36 4 27 11 56 276 566 1031 889 1033 1142 1178 1113 957 1116 818 761 416 542 200 484 905 343 236 179 25 4 0 0 0 0 0 0 0 0 0 0 0 0 0 0 0 0 0 0 0 0 0 0 0 0 0 0 0 0 0 0 0 0 0 0 0 0 0 0 0 20 44 77 72 92 84 91 122
82 26 0 0 87 69 152 97 178 112 21 5 9 14 6 5 92 238 269 558 990 967 1136 1107 972 319 201 134 150 122 46 36 104 82 61 47 3 4 8 0 0 0 0 0 0 0 0 0 0 0 0 0 0 0 0 0 0 0 0 0 0 0 0 0 0 0 0 0 0 0 0 0 0 0 0 0 0 0 0 0 0 0 0 0 0
93 5 0 0 23 46 28 41 4 5 0 0 0 0 0 0 0 8 6 15 70 179 273 201 96 20 9 1 0 0 0 0 0 0 0 0 2 2 1 0 0 0 0 0 0 0 0 0 0 0 0 0 0 0 0 0 0 0 0 0 0 0 0 0 0 0 0 0 0 0 0 0 0 0 0 0 0 0 0 0 0 0 0 0 0
1 0 0 16 37 5 0 0 0 0 0 0 0 0 0 0 0 0 0 0 0 4 22 13 0 0 0 0 0 0 0 0 0 0 0 0 0 0 0 0 0 0 0 0 0 0 0 0 0 0 0 0 0 0 0 0 0 0 0 0 0 0 0 0 0 0 0 0 0 0 0 0 0 0 0 0 0 0 0 0 0 0 0 0 0
0 0 0 0 0 0 0 0 0 0 0 0 0 0 0 0 0 0 0 0 0 0 0 0 0 0 0 0 0 0 0 0 0 0 0 0 0 0 0 0 3 0 0 0 0 0 0 0 0 0 0 0 0 0 0 0 0 0 0 0 0 0 0 0 0 0 0 0 0 0 0 0 0 0 0 0 0 0 0 0 0 0 0 0 0
0 0 0 0 0 0 0 0 0 0 0 0 0 0 0 0 0 0 0 0 0 0 0 0 0 0 0 0 0 0 0 0 0 0 0 0 0 0 0 0 3 13 3 9 0 0 0 0 0 0 0 0 0 0 0 0 0 0 0 0 0 0 0 0 0 0 0 0 0 0 0 0 0 0 0 0 0 0 0 0 0 0 0 0 0
0 0 0 0 0 0 0 0 0 0 0 0 0 0 0 0 0 0 0 0 0 0 0 0 0 0 0 0 0 0 0 0 0 0 0 0 0 0 0 0 0 10 12 4 0 0 0 0 0 0 0 0 0 0 0 0 0 0 0 0 0 0 0 0 0 0 0 0 0 0 0 0 0 0 0 0 0 0 0 0 0 0 0 0 0
0 0 0 0 0 0 0 0 0 0 0 0 0 0 0 0 0 0 0 0 0 0 0 0 0 0 0 0 0 0 0 0 0 0 0 0 0 0 0 0 0 1 0 0 0 0 0 0 0 0 0 0 0 0 0 0 0 0 0 0 0 0 0 0 0 0 0 0 0 0 0 0 0 0 0 0 0 0 0 0 0 0 0 0 0
0 0 0 0 0 0 0 0 0 0 0 0 0 0 0 0 0 0 0 0 0 0 0 0 0 0 0 0 0 0 0 0 0 0 0 0 0 0 0 0 0 0 0 0 0 0 0 0 0 0 0 0 0 0 0 0 0 0 0 0 0 0 0 0 0 0 0 0 0 0 0 0 0 0 0 0 0 0 0 0 0 0 0 0 0
0 0 0 0 0 0 0 0 0 0 0 0 0 0 0 0 0 0 0 0 0 0 0 0 0 0 0 0 0 0 0 0 0 0 0 0 0 0 0 0 0 0 0 0 0 0 0 0 0 0 0 0 0 0 0 0 0 0 0 0 0 0 0 0 0 0 0 0 0 0 0 0 0 0 0 0 0 0 0 0 0 0 0 0 0
0 0 0 0 0 0 0 0 0 0 0 0 0 0 0 0 0 0 0 0 0 0 0 0 0 0 0 0 0 0 0 0 0 0 0 0 0 0 0 0 0 0 0 0 2 0 0 0 0 0 0 0 0 0 0 0 0 0 0 0 0 0 0 0 0 0 0 0 0 0 0 0 0 0 0 0 0 0 0 0 0 0 0 0 0
0 0 0 0 0 0 0 0 0 0 0 0 0 0 0 0 0 0 0 0 0 0 0 0 0 0 0 0 0 0 0 0 0 0 0 0 0 0 0 0 0 0 0 0 0 1 1 0 0 0 0 0 0 0 0 0 0 0 0 0 0 0 0 0 0 0 0 0 0 0 0 0 0 0 0 0 0 0 0 0 0 0 0 0 0
166 36 0 0 0 0 0 0 0 0 0 0 0 0 0 0 0 0 0 0 0 0 0 0 0 0 0 0 0 0 0 0 0 0 0 0 2 1 2 0 0 0 0 0 0 0 3 8 4 0 0 0 0 0 0 0 0 0 0 0 0 0 0 0 0 0 0 0 0 0 0 0 0 0 0 0 0 0 0 0 0 0 0 0 0
44 175 38 0 0 0 0 0 0 0 0 0 0 0 0 0 0 0 0 0 0 0 2 0 0 0 0 6 2 0 0 15 0 0 0 0 0 0 3 1 3 0 2 0 0 2 0 3 2 2 1 0 2 6 1 0 0 0 0 0 0 0 0 0 0 0 0 0 0 0 0 0 0 0 0 0 0 0 0 0 0 0 0 0 0
19 7 36 37 2 0 0 0 0 0 0 0 0 0 0 0 0 0 7 8 0 7 4 3 0 0 8 19 39 4 0 30 53 44 9 0 0 0 0 0 0 0 0 2 3 2 3 0 3 3 2 1 0 2 0 0 0 0 0 0 0 0 0 0 0 0 0 0 0 0 0 0 0 0 0 0 0 0 0 0 0 0 0 0 0
274 120 8 35 62 52 8 0 0 0 0 0 0 0 0 0 9 40 55 92 103 118 138 48 34 28 17 12 38 72 24 22 79 35 6 12 1 0 0 0 0 0 0 5 1 1 6 6 1 2 6 4 2 0 1 0 0 0 0 0 0 0 0 0 0 0 0 0 0 0 0 0 0 0 0 0 0 0 0 0 0 0 0 0 0
420 304 145 34 108 92 27 22 8 9 19 2 1 10 2 19 137 183 226 223 261 277 302 295 410 370 227 220 186 197 155 32 1 60 664 8 327 5 6 0 0 0 0 0 2 3 4 5 3 6 4 6 8 9 2 0 1 0 0 0 0 0 0 0 0 0 0 0 0 0 0 0 0 0 0 0 0 0 0 0 0 0 0 0 0
335 27 12 206 148 148 84 69 98 202 266 312 691 70 133 388 592 598 656 632 567 722 699 633 745 575 676 487 568 300 24 0 0 0 0 0 0 0 13 8 0 0 0 2 9 0 0 0 2 3 0 0 0 1 0 1 0 3 0 0 0 0 0 0 0 0 0 0 0 0 0 0 0 0 0 0 0 0 0 0 0 0 0 0 0
589 576 124 666 562 452 331 421 450 809 803 723 517 466 528 561 773 830 915 995 858 859 941 969 938 903 729 675 664 413 166 46 33 122 0 0 0 0 0 0 7 68 0 1 8 0 0 2 1 0 0 0 4 5 3 0 0 0 0 0 0 0 0 0 0 0 0 0 0 0 0 0 0 0 0 0 0 0 0 0 0 0 0 0 0
992 864 821 766 799 827 797 725 822 1234 1458 1048 796 552 604 666 852 1120 1135 978 1114 1108 1002 1050 1038 1038 687 308 109 200 336 328 162 1 23 0 0 0 0 0 0 0 0 0 0 0 0 0 0 1 1 2 0 0 0 0 0 0 0 0 0 0 0 0 0 0 0 0 0 0 0 0 0 0 0 0 0 0 0 0 0 0 0 0 0
1014 842 1138 820 883 1051 1214 1006 986 1209 1460 810 687 516 562 645 628 792 806 996 956 935 872 842 903 1123 824 533 556 523 469 156 244 146 58 134 9 0 0 0 0 0 0 0 0 0 0 0 0 0 0 0 0 0 0 0 0 0 0 0 0 0 0 0 0 0 0 0 0 0 0 0 0 0 0 0 0 0 0 0 0 0 0 0 0
1032 675 701 858 1053 769 625 954 869 850 647 798 338 2 8 138 0 100 573 747 796 671 676 707 1074 1052 1112 1175 724 580 400 225 220 331 200 135 162 179 168 137 110 10 0 0 24 0 0 0 0 0 0 0 0 0 0 0 0 0 0 0 0 0 0 0 0 0 0 0 0 0 0 0 0 0 0 0 0 0 0 0 0 0 0 0 0
920 888 648 746 972 836 985 696 596 436 568 604 786 587 196 11 6 8 8 714 823 919 1100 1033 1009 846 704 787 524 336 561 234 192 283 127 126 146 129 59 0 0 0 0 0 0 0 0 0 0 0 0 0 0 0 0 0 0 0 0 0 0 0 0 0 0 0 0 0 0 0 0 0 0 0 0 0 0 0 0 0 0 0 0 0 0
1287 1191 914 742 607 721 705 628 609 494 322 446 620 664 498 245 40 20 61 834 867 828 327 614 645 627 551 579 375 343 292 335 226 167 164 107 91 0 0 0 0 0 0 0 0 0 0 0 0 0 0 0 0 0 0 0 0 0 0 0 0 0 0 0 0 0 0 0 0 0 0 0 0 0 0 0 0 0 0 0 0 0 0 0 0
1165 1131 992 815 697 571 458 736 474 561 574 503 570 587 491 371 309 91 36 792 544 296 379 30 44 69 46 3 148 139 397 131 143 103 142 120 106 0 0 0 0 0 0 0 0 0 0 0 0 0 0 0 0 0 0 0 0 0 0 0 0 0 0 0 0 0 0 0 0 0 0 0 0 0 0 0 0 0 0 0 0 0 0 0 0
1034 948 932 906 1016 1074 982 601 463 383 186 197 529 525 416 327 229 118 59 20 470 117 15 22 40 17 18 0 0 168 353 100 90 174 157 70 4 0 0 0 0 0 0 0 0 0 0 0 0 0 0 0 0 0 0 0 0 0 0 0 0 0 0 0 0 0 0 0 0 0 0 0 0 0 0 0 0 0 0 0 0 1 0 0 0
466 755 740 894 1110 987 1172 836 531 460 468 457 573 503 341 211 145 239 193 39 44 26 32 20 30 15 0 0 0 49 1 4 73 79 0 0 10 1 0 1 0 0 0 0 0 0 0 0 0 0 0 0 0 0 0 0 0 0 0 0 0 0 0 0 0 0 0 0 0 0 0 0 0 0 0 0 0 0 0 0 0 0 0 0 1
Wind_Speed
17 18 17 18 21 16 14 13 20 19 18 19 19 16 17 14 9 9 12 12 12 12 16 19 18 18 21 21 22 24 23 23 25 26 28 27 27 28 30 31 31 30 31 28 27 28 26 26 27 26 25 25 25 25 24 23 23 22 20 20 nan nan nan nan nan nan nan nan nan nan nan nan nan nan nan nan nan nan nan nan nan nan nan nan nan
17 16 15 17 19 19 15 16 18 20 21 22 20 17 12 15 12 12 12 12 12 13 14 17 17 17 21 20 19 21 24 21 23 24 28 28 28 27 30 29 29 29 30 28 27 27 26 26 27 27 26 26 25 26 26 24 24 23 22 21 nan nan nan nan nan nan nan nan nan nan nan nan nan nan nan nan nan nan nan nan nan nan nan nan nan
16 15 15 18 18 17 17 16 16 20 21 20 19 17 14 12 13 10 8 12 11 15 12 15 17 16 18 21 19 21 23 20 23 25 28 29 27 26 27 28 28 29 30 28 28 27 25 27 27 26 28 26 27 28 27 25 25 25 24 23 21 nan nan nan nan nan nan nan nan nan nan nan nan nan nan nan nan nan nan nan nan nan nan nan nan
15 14 15 18 17 17 16 14 14 17 17 16 16 17 13 11 9 9 5 9 11 13 nan 15 16 15 16 19 19 20 22 23 23 25 26 30 28 27 26 25 26 26 27 27 26 26 25 26 26 27 27 28 28 28 28 25 27 24 26 24 23 21 nan nan nan nan nan nan nan nan nan nan nan nan nan nan nan nan nan nan nan nan nan nan nan
13 13 14 14 16 15 13 13 14 16 16 15 14 12 10 9 8 11 12 15 9 11 13 15 14 17 14 18 17 18 22 22 24 24 26 28 29 27 24 22 22 24 24 24 24 24 25 26 27 29 29 28 30 31 29 28 nan nan 26 25 24 23 22 21 nan nan nan nan nan nan nan nan nan nan nan nan nan nan nan nan nan nan nan nan nan
14 13 12 12 12 15 12 14 13 13 15 14 13 11 8 8 8 11 8 13 8 7 10 13 14 14 13 19 14 16 18 22 24 26 24 30 29 26 18 19 22 22 22 24 23 25 26 25 26 29 28 26 26 27 29 27 29 25 27 26 25 24 23 22 21 nan nan nan nan nan nan nan nan nan nan nan nan nan nan nan nan nan nan nan nan
12 12 10 9 10 11 15 12 11 12 14 13 12 8 7 7 9 8 6 8 9 3 8 12 13 13 15 16 13 19 16 24 26 24 26 28 28 24 21 23 21 22 22 22 23 25 26 25 26 25 23 23 23 22 23 24 25 25 24 26 25 24 24 23 22 21 20 nan nan nan nan nan nan nan nan nan nan nan nan nan nan nan nan nan nan
14 12 9 7 8 10 15 16 12 12 14 13 11 7 5 5 5 7 7 8 6 1 5 11 13 15 16 16 17 21 24 25 30 26 22 23 25 27 23 25 23 21 21 21 21 24 26 27 27 25 25 24 22 21 21 21 22 23 23 23 25 24 23 23 23 22 22 20 nan nan nan nan nan nan nan nan nan nan nan nan nan nan nan nan nan
15 13 10 8 8 10 20 16 14 13 12 13 10 8 7 6 6 9 8 6 3 8 11 13 14 16 16 17 19 21 24 25 23 21 23 22 24 22 25 21 20 20 18 21 21 22 23 24 26 27 25 24 24 23 23 23 22 22 21 21 23 23 24 23 24 23 22 22 21 nan nan nan nan nan nan nan nan nan nan nan nan nan nan nan nan
15 14 11 9 10 15 15 20 16 13 12 12 10 8 7 7 7 8 9 5 4 5 8 13 13 14 16 16 18 21 21 23 20 20 19 19 20 20 21 22 22 19 19 20 20 19 19 20 20 23 25 25 25 24 22 22 23 24 23 23 22 21 21 22 22 22 22 22 22 22 22 22 nan nan nan nan nan nan nan nan nan nan nan nan nan
16 15 12 11 11 14 17 22 16 14 14 13 11 4 5 7 9 7 7 8 1 6 7 11 12 12 15 16 17 18 22 21 17 17 18 19 18 17 17 21 19 22 22 21 22 18 18 18 20 19 23 23 24 24 24 24 23 23 23 23 23 23 23 21 20 21 22 22 23 22 22 23 23 nan nan nan nan nan nan nan nan nan nan nan nan
16 15 13 13 13 15 19 22 17 17 16 16 13 8 3 5 7 8 7 7 5 5 6 13 10 17 13 15 15 16 23 17 14 15 17 17 16 16 17 17 19 21 22 22 18 16 18 18 19 20 21 21 20 22 24 25 27 27 26 26 25 22 21 21 22 21 21 21 21 22 24 23 23 23 22 nan nan nan nan nan nan nan nan nan nan
15 15 13 14 15 15 18 19 21 18 16 16 17 13 8 5 9 8 9 6 6 6 9 15 14 15 12 12 16 14 19 16 12 14 15 16 14 14 14 17 18 21 19 20 15 16 21 18 17 18 20 20 19 19 23 24 26 26 27 26 26 26 23 23 22 21 22 24 23 22 24 24 24 23 22 21 21 nan nan nan nan nan nan nan nan
16 16 15 14 18 14 17 20 20 19 19 20 16 14 11 9 8 9 9 5 8 8 10 16 11 12 14 12 13 11 16 16 15 12 14 14 16 14 12 17 18 18 18 20 19 20 22 20 20 19 18 19 17 19 21 23 23 nan 21 21 24 24 24 24 23 22 22 23 22 23 23 24 25 23 21 21 20 20 21 nan nan nan nan nan nan
18 16 15 16 16 17 18 18 18 20 20 20 18 16 13 9 8 8 7 6 9 10 14 17 17 14 16 13 11 12 13 13 11 11 12 13 13 15 15 14 16 23 20 18 20 20 19 25 21 19 18 20 21 19 19 nan nan 22 20 20 19 19 19 19 21 20 20 20 21 22 24 24 26 24 22 20 19 19 20 21 nan nan nan nan nan
18 17 17 16 16 16 17 17 17 19 19 19 18 18 13 11 11 9 7 9 9 12 16 16 20 16 17 11 11 11 13 11 10 10 12 11 8 14 13 nan 17 20 20 21 21 21 22 23 24 23 22 21 22 23 17 20 nan nan nan nan nan 18 17 17 18 17 19 22 21 21 23 24 23 22 22 19 17 17 18 21 22 25 nan nan nan
19 17 17 16 16 16 14 15 14 15 18 21 19 19 18 16 14 11 10 9 11 14 14 18 18 17 19 17 15 13 10 13 10 12 15 12 11 16 14 13 17 19 16 21 22 22 nan 24 24 24 23 24 25 22 21 21 21 20 nan nan nan nan nan nan 18 19 18 17 18 22 24 23 22 21 21 22 20 19 17 19 23 24 nan nan nan
18 18 19 17 16 15 14 13 14 13 14 17 18 20 19 16 16 16 13 12 12 11 14 17 15 17 17 15 14 16 16 20 15 14 10 9 15 15 nan nan nan nan nan nan nan nan nan nan nan nan 27 27 26 nan nan nan nan nan nan nan nan nan nan nan nan nan 19 20 21 23 23 25 26 23 19 23 23 21 20 20 23 23 22 22 nan
16 17 18 18 17 17 17 14 15 15 15 14 17 18 17 18 19 17 19 15 13 12 13 16 16 17 17 18 16 15 18 21 18 21 18 17 nan nan nan nan nan nan nan nan nan nan nan nan nan nan nan nan nan nan nan nan nan nan nan nan nan nan nan nan nan nan nan 22 22 21 21 22 21 22 23 21 22 23 21 24 21 20 22 24 24
14 16 17 18 18 18 18 19 16 nan nan nan 18 16 17 19 20 19 21 16 16 13 16 15 17 17 18 21 18 14 17 19 20 19 19 nan nan nan nan nan nan nan nan nan nan nan nan nan nan nan nan nan nan nan nan nan nan nan nan nan nan nan nan nan nan nan nan 29 30 32 33 33 30 27 24 25 24 23 24 23 21 22 23 25 26
15 nan 16 18 18 20 19 21 22 22 nan 23 21 20 20 21 20 19 18 18 18 16 15 15 13 20 17 18 17 17 17 22 21 22 16 nan nan nan nan nan nan nan nan nan nan nan nan nan nan nan nan nan nan nan nan nan nan nan nan nan nan nan nan nan nan nan nan nan 34 35 34 35 35 33 30 29 29 26 22 22 23 24 25 27 25
18 19 19 21 21 20 22 23 24 25 25 26 23 22 21 22 22 21 21 19 20 20 18 17 18 15 17 15 20 17 18 22 23 17 14 nan nan nan nan nan nan nan nan nan nan nan nan nan nan nan nan nan nan nan nan nan nan nan nan nan nan nan nan nan nan nan nan nan nan nan nan 36 36 35 35 34 33 33 31 27 20 20 18 18 20
22 22 21 nan nan 23 23 23 24 25 26 nan 25 23 22 22 22 23 22 20 18 23 19 18 18 12 14 18 22 16 17 16 21 19 19 nan nan nan nan nan nan nan nan nan nan nan nan nan nan nan nan nan nan nan nan nan nan nan nan nan nan nan nan nan nan nan nan nan nan nan nan nan nan nan nan nan 35 36 34 33 33 30 29 29 28
24 25 24 nan nan 24 24 23 24 24 nan nan nan nan nan 23 23 22 21 20 19 20 22 16 19 17 22 22 22 19 16 17 18 24 21 21 26 nan nan nan nan nan nan nan nan nan nan nan nan nan nan nan nan nan nan nan nan nan nan nan nan nan nan nan nan nan nan nan nan nan nan nan nan nan nan nan 31 34 35 34 33 31 28 27 26
26 27 nan nan nan nan 24 23 22 22 22 nan nan nan nan nan 24 23 21 19 19 18 17 19 18 19 21 21 16 20 20 25 19 22 25 26 nan nan nan nan nan nan nan nan nan nan nan nan nan nan nan nan nan nan nan nan nan nan nan nan nan nan nan nan nan nan nan nan nan nan nan nan nan nan nan nan nan nan nan nan nan nan nan nan 27
nan nan nan nan nan nan 22 nan 21 21 nan nan nan nan nan nan nan 24 22 19 18 17 18 18 17 19 19 20 20 21 nan nan 24 nan nan nan nan nan nan nan nan nan nan nan nan nan nan nan nan nan nan nan nan nan nan nan nan nan nan nan nan nan nan nan nan nan nan nan nan nan nan nan nan nan nan nan nan nan nan nan nan nan nan nan nan
nan nan nan nan nan nan nan nan nan nan nan nan nan nan nan nan nan nan nan nan nan 16 16 17 nan nan nan nan nan nan nan nan nan nan nan nan nan nan nan nan nan nan nan nan nan nan nan nan nan nan nan nan nan nan nan nan nan nan nan nan nan nan nan nan nan nan nan nan nan nan nan nan nan nan nan nan nan nan nan nan nan nan nan nan nan
nan nan nan nan nan nan nan nan nan nan nan nan nan nan nan nan nan nan nan nan nan nan nan nan nan nan nan nan nan nan nan nan nan nan nan nan nan nan nan nan nan nan nan nan nan nan nan nan nan nan nan nan nan nan nan nan nan nan nan nan nan nan nan nan nan nan nan nan nan nan nan nan nan nan nan nan nan nan nan nan nan nan nan nan nan
nan nan nan nan nan nan nan nan nan nan nan nan nan nan nan nan nan nan nan nan nan nan nan nan nan nan nan nan nan nan nan nan nan nan nan nan nan nan nan nan nan nan nan nan nan nan nan nan nan nan nan nan nan nan nan nan nan nan nan nan nan nan nan nan nan nan nan nan nan nan nan nan nan nan nan nan nan nan nan nan nan nan nan nan nan
nan nan nan nan nan nan nan nan nan nan nan nan nan nan nan nan nan nan nan nan nan nan nan nan nan nan nan nan nan nan nan nan nan nan nan nan nan nan nan nan nan nan nan nan nan nan nan nan nan nan nan nan nan nan nan nan nan nan nan nan nan nan nan nan nan nan nan nan nan nan nan nan nan nan nan nan nan nan nan nan nan nan nan nan nan
nan nan nan nan nan nan nan nan nan nan nan nan nan nan nan nan nan nan nan nan nan nan nan nan nan nan nan nan nan nan nan nan nan nan nan nan nan nan nan nan nan nan nan nan nan nan nan nan nan nan nan nan nan nan nan nan nan nan nan nan nan nan nan nan nan nan nan nan nan nan nan nan nan nan nan nan nan nan nan nan nan nan nan nan nan
nan nan nan nan nan nan nan nan nan nan nan nan nan nan nan nan nan nan nan nan nan nan nan nan nan nan nan nan nan nan nan nan nan nan nan nan nan nan nan nan nan nan nan nan nan nan nan nan nan nan nan nan nan nan nan nan nan nan nan nan nan nan nan nan nan nan nan nan nan nan nan nan nan nan nan nan nan nan nan nan nan nan nan nan nan
nan nan nan nan nan nan nan nan nan nan nan nan nan nan nan nan nan nan nan nan nan nan nan nan nan nan nan nan nan nan nan nan nan nan nan nan nan nan nan nan nan nan nan nan nan nan nan nan nan nan nan nan nan nan nan nan nan nan nan nan nan nan nan nan nan nan nan nan nan nan nan nan nan nan nan nan nan nan nan nan nan nan nan nan nan
nan nan nan nan nan nan nan nan nan nan nan nan nan nan nan nan nan nan nan nan nan nan nan nan nan nan nan nan nan nan nan nan nan nan nan nan nan nan nan nan nan nan nan nan nan nan nan nan nan nan nan nan nan nan nan nan nan nan nan nan nan nan nan nan nan nan nan nan nan nan nan nan nan nan nan nan nan nan nan nan nan nan nan nan nan
nan nan nan nan nan nan nan nan nan nan nan nan nan nan nan nan nan nan nan nan nan nan nan nan nan nan nan nan nan nan nan nan nan nan nan nan nan nan nan nan nan nan nan nan nan nan nan nan nan nan nan nan nan nan nan nan nan nan nan nan nan nan nan nan nan nan nan nan nan nan nan nan nan nan nan nan nan nan nan nan nan nan nan nan nan
nan nan nan nan nan nan nan nan nan nan nan nan nan nan nan nan nan nan nan nan nan nan nan nan nan nan nan nan nan nan nan nan nan nan nan nan nan nan nan nan nan nan nan nan nan nan nan nan nan nan nan nan nan nan nan nan nan nan nan nan nan nan nan nan nan nan nan nan nan nan nan nan nan nan nan nan nan nan nan nan nan nan nan nan nan
16 nan nan nan nan nan nan nan nan nan nan nan nan nan nan nan nan nan nan nan nan nan nan nan nan nan nan nan nan nan nan nan nan nan nan nan nan nan nan nan nan nan nan nan nan nan nan nan nan nan nan nan nan nan nan nan nan nan nan nan nan nan nan nan nan nan nan nan nan nan nan nan nan nan nan nan nan nan nan nan nan nan nan nan nan
nan 18 nan nan nan nan nan nan nan nan nan nan nan nan nan nan nan nan nan nan nan nan nan nan nan nan nan nan nan nan nan nan nan nan nan nan nan nan nan nan nan nan nan nan nan nan nan nan nan nan nan nan nan nan nan nan nan nan nan nan nan nan nan nan nan nan nan nan nan nan nan nan nan nan nan nan nan nan nan nan nan nan nan nan nan
nan nan nan nan nan nan nan nan nan nan nan nan nan nan nan nan nan nan nan nan nan nan nan nan nan nan nan nan nan nan nan nan nan nan nan nan nan nan nan nan nan nan nan nan nan nan nan nan nan nan nan nan nan nan nan nan nan nan nan nan nan nan nan nan nan nan nan nan nan nan nan nan nan nan nan nan nan nan nan nan nan nan nan nan nan
21 20 nan nan nan nan nan nan nan nan nan nan nan nan nan nan nan nan nan nan 27 28 28 nan nan nan nan nan nan nan nan nan nan nan nan nan nan nan nan nan nan nan nan nan nan nan nan nan nan nan nan nan nan nan nan nan nan nan nan nan nan nan nan nan nan nan nan nan nan nan nan nan nan nan nan nan nan nan nan nan nan nan nan nan nan
24 22 23 nan 21 nan nan nan nan nan nan nan nan nan nan nan 28 27 27 27 27 28 28 27 28 29 28 28 28 29 31 nan nan nan 36 nan 30 nan nan nan nan nan nan nan nan nan nan nan nan nan nan nan nan nan nan nan nan nan nan nan nan nan nan nan nan nan nan nan nan nan nan nan nan nan nan nan nan nan nan nan nan nan nan nan nan
24 nan nan 24 24 25 nan nan nan 29 30 30 35 nan 33 36 33 31 29 28 28 27 27 27 27 26 27 27 28 29 nan nan nan nan nan nan nan nan nan nan nan nan nan nan nan nan nan nan nan nan nan nan nan nan nan nan nan nan nan nan nan nan nan nan nan nan nan nan nan nan nan nan nan nan nan nan nan nan nan nan nan nan nan nan nan
25 26 25 25 26 27 27 30 31 33 33 37 45 44 41 39 39 36 33 30 28 27 26 25 25 29 28 30 36 40 35 nan nan 34 nan nan nan nan nan nan nan nan nan nan nan nan nan nan nan nan nan nan nan nan nan nan nan nan nan nan nan nan nan nan nan nan nan nan nan nan nan nan nan nan nan nan nan nan nan nan nan nan nan nan nan
32 29 27 26 27 29 30 31 33 36 36 45 46 47 43 40 38 39 38 35 31 29 28 27 26 27 33 35 31 32 30 30 28 nan nan nan nan nan nan nan nan nan nan nan nan nan nan nan nan nan nan nan nan nan nan nan nan nan nan nan nan nan nan nan nan nan nan nan nan nan nan nan nan nan nan nan nan nan nan nan nan nan nan nan nan
34 30 32 31 29 32 34 32 35 36 39 50 46 45 43 41 38 37 41 39 37 33 31 29 29 31 33 34 36 37 34 32 30 33 nan 39 nan nan nan nan nan nan nan nan nan nan nan nan nan nan nan nan nan nan nan nan nan nan nan nan nan nan nan nan nan nan nan nan nan nan nan nan nan nan nan nan nan nan nan nan nan nan nan nan nan
33 34 30 31 32 33 34 33 34 36 38 48 48 nan nan 39 nan nan 39 42 40 38 35 34 34 34 36 39 42 39 38 37 31 31 36 38 38 39 40 39 41 nan nan nan nan nan nan nan nan nan nan nan nan nan nan nan nan nan nan nan nan nan nan nan nan nan nan nan nan nan nan nan nan nan nan nan nan nan nan nan nan nan nan nan nan
35 35 36 31 32 35 35 37 37 36 41 43 39 41 39 nan nan nan nan 42 42 41 41 39 37 36 37 41 42 40 39 36 34 31 39 43 42 41 nan nan nan nan nan nan nan nan nan nan nan nan nan nan nan nan nan nan nan nan nan nan nan nan nan nan nan nan nan nan nan nan nan nan nan nan nan nan nan nan nan nan nan nan nan nan nan
38 40 38 38 37 33 30 34 37 37 38 42 42 43 43 41 nan nan nan 42 44 46 43 43 40 38 37 38 40 38 39 35 47 47 50 48 nan nan nan nan nan nan nan nan nan nan nan nan nan nan nan nan nan nan nan nan nan nan nan nan nan nan nan nan nan nan nan nan nan nan nan nan nan nan nan nan nan nan nan nan nan nan nan nan nan
38 39 39 39 39 38 37 40 39 40 38 42 44 45 46 47 46 nan nan 43 45 44 43 nan nan nan nan nan 39 38 42 46 54 57 54 48 45 nan nan nan nan nan nan nan nan nan nan nan nan nan nan nan nan nan nan nan nan nan nan nan nan nan nan nan nan nan nan nan nan nan nan nan nan nan nan nan nan nan nan nan nan nan nan nan nan
42 40 39 38 38 38 43 46 43 43 43 48 48 50 50 49 46 43 nan nan 46 49 nan nan nan nan nan nan nan 42 47 50 nan 52 48 nan nan nan nan nan nan nan nan nan nan nan nan nan nan nan nan nan nan nan nan nan nan nan nan nan nan nan nan nan nan nan nan nan nan nan nan nan nan nan nan nan nan nan nan nan nan nan nan nan nan
45 44 44 42 41 41 45 48 48 52 48 55 54 55 50 47 44 43 44 nan nan nan nan nan nan nan nan nan nan nan nan nan nan nan nan nan nan nan nan nan nan nan nan nan nan nan nan nan nan nan nan nan nan nan nan nan nan nan nan nan nan nan nan nan nan nan nan nan nan nan nan nan nan nan nan nan nan nan nan nan nan nan nan nan nan
Wind_Direction
288 288 291 292 290 300 295 272 274 278 267 271 270 273 273 253 247 254 269 265 269 265 265 265 264 260 262 263 263 266 262 260 262 267 269 267 267 269 271 267 262 265 269 274 276 278 275 273 270 269 268 271 272 275 276 275 276 276 273 268 nan nan nan nan nan nan nan nan nan nan nan nan nan nan nan nan nan nan nan nan nan nan nan nan nan
287 293 290 278 272 278 279 273 268 263 261 260 258 258 253 266 252 236 249 265 269 273 270 269 271 268 271 264 260 264 264 262 264 265 269 267 264 267 269 265 264 260 260 266 271 276 276 272 272 270 268 269 273 277 276 276 275 276 273 272 nan nan nan nan nan nan nan nan nan nan nan nan nan nan nan nan nan nan nan nan nan nan nan nan nan
301 306 291 291 288 285 279 276 274 268 270 262 263 263 256 252 269 264 249 266 264 272 271 278 275 271 266 269 267 261 261 260 263 262 267 266 265 268 268 266 263 257 256 255 263 266 273 274 273 273 271 271 270 278 277 276 272 271 276 275 274 nan nan nan nan nan nan nan nan nan nan nan nan nan nan nan nan nan nan nan nan nan nan nan nan
306 308 304 301 302 294 292 288 278 276 277 273 269 269 265 267 272 256 248 233 259 268 nan 272 281 280 276 276 270 268 270 264 262 264 264 270 268 266 267 267 263 262 257 257 259 264 271 274 274 274 273 272 274 274 278 273 268 271 277 277 277 276 nan nan nan nan nan nan nan nan nan nan nan nan nan nan nan nan nan nan nan nan nan nan nan
296 302 306 305 302 298 298 293 285 282 283 284 278 277 276 270 281 264 239 242 214 253 268 276 283 283 287 277 275 270 271 268 263 263 265 271 270 261 263 269 270 267 266 266 263 265 265 271 272 272 273 274 273 275 271 268 nan nan 278 279 279 277 274 272 nan nan nan nan nan nan nan nan nan nan nan nan nan nan nan nan nan nan nan nan nan
303 305 312 306 312 305 305 287 289 289 288 286 285 282 288 278 262 258 250 241 211 246 268 272 262 275 279 274 259 273 270 273 264 258 256 257 261 267 268 268 272 274 275 275 272 266 263 265 270 270 271 276 277 275 277 273 271 270 273 280 278 276 273 269 267 nan nan nan nan nan nan nan nan nan nan nan nan nan nan nan nan nan nan nan nan
319 314 316 318 316 317 296 280 296 292 283 275 276 275 274 276 249 233 246 228 193 166 272 278 277 262 258 264 280 272 270 257 266 258 253 252 263 276 272 270 269 271 272 273 271 269 269 271 273 274 274 277 279 279 277 273 275 276 272 282 278 277 273 270 267 264 263 nan nan nan nan nan nan nan nan nan nan nan nan nan nan nan nan nan nan
312 315 317 318 312 302 285 283 288 285 273 280 280 284 286 288 268 272 243 191 159 302 269 272 278 270 266 268 257 258 259 255 254 260 265 262 259 258 267 268 266 266 274 273 277 280 285 283 280 280 285 281 276 274 276 279 274 275 273 276 284 281 280 278 277 272 270 267 nan nan nan nan nan nan nan nan nan nan nan nan nan nan nan nan nan
312 315 320 325 307 287 269 297 291 280 282 281 287 283 279 287 279 268 263 162 105 336 301 280 274 265 269 264 262 264 263 262 271 265 257 258 263 269 275 265 267 276 273 275 274 276 283 283 289 287 283 282 279 277 269 262 259 260 264 265 283 289 286 284 283 279 276 274 269 nan nan nan nan nan nan nan nan nan nan nan nan nan nan nan nan
308 308 309 309 304 282 290 293 291 290 289 282 280 278 283 279 276 273 274 202 225 253 280 282 273 273 272 266 264 270 271 273 272 273 275 275 265 266 275 281 282 284 277 276 276 273 275 275 276 273 272 273 275 278 276 273 271 269 267 264 262 266 283 285 281 283 280 278 274 270 267 265 nan nan nan nan nan nan nan nan nan nan nan nan nan
300 304 308 289 269 273 271 285 299 302 288 284 281 271 284 284 278 278 275 273 274 258 251 267 272 274 271 267 271 270 276 272 272 277 276 266 268 268 273 274 281 286 284 279 280 278 280 280 279 282 281 284 286 282 281 278 273 270 269 271 270 271 269 272 280 283 281 276 274 271 268 269 268 nan nan nan nan nan nan nan nan nan nan nan nan
295 299 300 299 292 283 284 284 300 303 298 294 297 299 316 308 298 286 275 281 308 274 254 267 259 258 250 269 270 274 272 277 279 277 279 278 275 272 269 269 270 274 279 274 265 286 286 278 269 275 283 286 287 288 286 279 277 272 271 266 268 273 273 273 272 276 279 279 272 268 273 272 272 269 266 nan nan nan nan nan nan nan nan nan nan
285 287 288 287 280 273 278 289 300 299 297 300 303 315 328 310 291 293 286 271 269 255 263 248 251 263 269 273 270 264 282 290 285 287 284 284 277 273 273 276 273 272 272 281 298 290 287 275 275 281 280 283 288 287 286 282 274 270 263 261 260 263 268 274 274 275 276 276 269 264 269 278 276 273 272 273 268 nan nan nan nan nan nan nan nan
282 283 285 285 284 288 282 280 283 291 289 291 296 298 299 298 284 287 280 281 261 270 258 271 258 267 273 274 278 267 252 270 287 296 289 293 293 291 285 288 292 282 290 293 293 295 285 285 291 291 292 289 289 296 292 289 282 nan 268 262 255 256 264 264 270 276 276 276 273 269 269 268 274 276 277 278 276 270 263 nan nan nan nan nan nan
282 277 278 283 281 282 284 286 290 289 290 289 295 299 296 299 297 284 275 303 303 282 281 268 274 271 270 267 264 277 265 249 252 263 274 274 296 301 291 296 293 292 292 294 294 300 297 297 296 295 296 302 308 304 302 nan nan 276 268 260 257 252 256 260 265 269 272 274 272 270 271 274 272 272 275 275 275 273 266 260 nan nan nan nan nan
279 284 280 273 275 280 281 283 288 291 293 289 289 296 301 302 304 301 303 303 291 285 279 286 280 283 274 270 280 275 285 274 274 288 283 283 275 271 272 nan 272 271 275 276 275 276 277 273 279 279 281 282 281 287 299 293 nan nan nan nan nan 257 255 252 249 251 257 259 261 262 264 269 272 271 272 271 266 263 261 261 259 258 nan nan nan
278 272 272 272 272 272 273 281 288 293 297 299 302 297 303 307 308 300 295 267 267 274 273 274 278 276 277 288 286 280 281 289 296 279 246 229 265 264 267 274 265 265 277 276 278 276 nan 272 272 274 275 274 275 284 280 286 292 282 nan nan nan nan nan nan 255 254 255 257 255 252 256 265 272 271 265 263 262 261 260 259 259 262 nan nan nan
275 270 261 259 261 264 270 281 286 290 287 292 293 288 287 290 287 283 279 279 268 280 282 277 282 287 289 274 277 278 293 299 291 278 264 305 270 256 nan nan nan nan nan nan nan nan nan nan nan nan 273 274 279 nan nan nan nan nan nan nan nan nan nan nan nan nan 256 253 249 248 250 254 255 260 263 257 259 262 261 259 261 264 267 266 nan
276 275 270 266 259 254 256 258 273 290 293 285 282 290 289 283 279 280 273 275 281 277 289 290 287 293 298 298 291 279 284 296 294 285 282 273 nan nan nan nan nan nan nan nan nan nan nan nan nan nan nan nan nan nan nan nan nan nan nan nan nan nan nan nan nan nan nan 260 258 258 257 256 259 259 249 248 256 262 263 262 262 269 271 268 267
285 276 277 277 270 270 265 262 268 nan nan nan 291 286 283 277 274 269 278 276 281 281 285 295 299 297 295 288 282 292 297 288 285 281 279 nan nan nan nan nan nan nan nan nan nan nan nan nan nan nan nan nan nan nan nan nan nan nan nan nan nan nan nan nan nan nan nan 252 254 258 257 257 257 254 249 245 247 260 266 272 273 269 265 265 266
273 nan 272 272 275 272 268 267 264 270 nan 283 289 289 286 283 280 275 273 273 273 272 270 279 287 275 289 277 288 294 303 299 288 289 280 nan nan nan nan nan nan nan nan nan nan nan nan nan nan nan nan nan nan nan nan nan nan nan nan nan nan nan nan nan nan nan nan nan 252 253 253 254 253 255 253 255 255 256 262 267 266 265 258 260 266
283 277 276 276 270 271 273 269 272 271 272 278 280 281 283 285 277 270 268 267 268 271 268 264 263 266 270 290 295 287 292 291 290 283 290 nan nan nan nan nan nan nan nan nan nan nan nan nan nan nan nan nan nan nan nan nan nan nan nan nan nan nan nan nan nan nan nan nan nan nan nan 254 254 254 255 256 258 258 256 258 265 275 272 271 270
291 288 283 nan nan 274 272 275 275 274 277 nan 275 275 278 278 276 270 265 262 268 269 265 265 268 278 293 275 273 276 267 272 286 287 275 nan nan nan nan nan nan nan nan nan nan nan nan nan nan nan nan nan nan nan nan nan nan nan nan nan nan nan nan nan nan nan nan nan nan nan nan nan nan nan nan nan 252 249 249 254 254 252 251 257 260
300 297 293 nan nan 283 282 279 276 276 nan nan nan nan nan 272 271 267 264 263 262 273 275 280 281 285 275 278 280 279 290 268 264 279 284 276 285 nan nan nan nan nan nan nan nan nan nan nan nan nan nan nan nan nan nan nan nan nan nan nan nan nan nan nan nan nan nan nan nan nan nan nan nan nan nan nan 252 249 247 247 247 248 248 247 247
303 299 nan nan nan nan 287 283 281 277 274 nan nan nan nan nan 265 262 258 259 261 263 268 270 273 275 275 278 285 287 281 282 286 275 271 277 nan nan nan nan nan nan nan nan nan nan nan nan nan nan nan nan nan nan nan nan nan nan nan nan nan nan nan nan nan nan nan nan nan nan nan nan nan nan nan nan nan nan nan nan nan nan nan nan 242
nan nan nan nan nan nan 282 nan 283 283 nan nan nan nan nan nan nan 259 257 253 257 260 269 272 272 272 275 279 281 275 nan nan 271 nan nan nan nan nan nan nan nan nan nan nan nan nan nan nan nan nan nan nan nan nan nan nan nan nan nan nan nan nan nan nan nan nan nan nan nan nan nan nan nan nan nan nan nan nan nan nan nan nan nan nan nan
nan nan nan nan nan nan nan nan nan nan nan nan nan nan nan nan nan nan nan nan nan 261 267 272 nan nan nan nan nan nan nan nan nan nan nan nan nan nan nan nan nan nan nan nan nan nan nan nan nan nan nan nan nan nan nan nan nan nan nan nan nan nan nan nan nan nan nan nan nan nan nan nan nan nan nan nan nan nan nan nan nan nan nan nan nan
nan nan nan nan nan nan nan nan nan nan nan nan nan nan nan nan nan nan nan nan nan nan nan nan nan nan nan nan nan nan nan nan nan nan nan nan nan nan nan nan nan nan nan nan nan nan nan nan nan nan nan nan nan nan nan nan nan nan nan nan nan nan nan nan nan nan nan nan nan nan nan nan nan nan nan nan nan nan nan nan nan nan nan nan nan
nan nan nan nan nan nan nan nan nan nan nan nan nan nan nan nan nan nan nan nan nan nan nan nan nan nan nan nan nan nan nan nan nan nan nan nan nan nan nan nan nan nan nan nan nan nan nan nan nan nan nan nan nan nan nan nan nan nan nan nan nan nan nan nan nan nan nan nan nan nan nan nan nan nan nan nan nan nan nan nan nan nan nan nan nan
nan nan nan nan nan nan nan nan nan nan nan nan nan nan nan nan nan nan nan nan nan nan nan nan nan nan nan nan nan nan nan nan nan nan nan nan nan nan nan nan nan nan nan nan nan nan nan nan nan nan nan nan nan nan nan nan nan nan nan nan nan nan nan nan nan nan nan nan nan nan nan nan nan nan nan nan nan nan nan nan nan nan nan nan nan
nan nan nan nan nan nan nan nan nan nan nan nan nan nan nan nan nan nan nan nan nan nan nan nan nan nan nan nan nan nan nan nan nan nan nan nan nan nan nan nan nan nan nan nan nan nan nan nan nan nan nan nan nan nan nan nan nan nan nan nan nan nan nan nan nan nan nan nan nan nan nan nan nan nan nan nan nan nan nan nan nan nan nan nan nan
nan nan nan nan nan nan nan nan nan nan nan nan nan nan nan nan nan nan nan nan nan nan nan nan nan nan nan nan nan nan nan nan nan nan nan nan nan nan nan nan nan nan nan nan nan nan nan nan nan nan nan nan nan nan nan nan nan nan nan nan nan nan nan nan nan nan nan nan nan nan nan nan nan nan nan nan nan nan nan nan nan nan nan nan nan
nan nan nan nan nan nan nan nan nan nan nan nan nan nan nan nan nan nan nan nan nan nan nan nan nan nan nan nan nan nan nan nan nan nan nan nan nan nan nan nan nan nan nan nan nan nan nan nan nan nan nan nan nan nan nan nan nan nan nan nan nan nan nan nan nan nan nan nan nan nan nan nan nan nan nan nan nan nan nan nan nan nan nan nan nan
nan nan nan nan nan nan nan nan nan nan nan nan nan nan nan nan nan nan nan nan nan nan nan nan nan nan nan nan nan nan nan nan nan nan nan nan nan nan nan nan nan nan nan nan nan nan nan nan nan nan nan nan nan nan nan nan nan nan nan nan nan nan nan nan nan nan nan nan nan nan nan nan nan nan nan nan nan nan nan nan nan nan nan nan nan
nan nan nan nan nan nan nan nan nan nan nan nan nan nan nan nan nan nan nan nan nan nan nan nan nan nan nan nan nan nan nan nan nan nan nan nan nan nan nan nan nan nan nan nan nan nan nan nan nan nan nan nan nan nan nan nan nan nan nan nan nan nan nan nan nan nan nan nan nan nan nan nan nan nan nan nan nan nan nan nan nan nan nan nan nan
nan nan nan nan nan nan nan nan nan nan nan nan nan nan nan nan nan nan nan nan nan nan nan nan nan nan nan nan nan nan nan nan nan nan nan nan nan nan nan nan nan nan nan nan nan nan nan nan nan nan nan nan nan nan nan nan nan nan nan nan nan nan nan nan nan nan nan nan nan nan nan nan nan nan nan nan nan nan nan nan nan nan nan nan nan
279 nan nan nan nan nan nan nan nan nan nan nan nan nan nan nan nan nan nan nan nan nan nan nan nan nan nan nan nan nan nan nan nan nan nan nan nan nan nan nan nan nan nan nan nan nan nan nan nan nan nan nan nan nan nan nan nan nan nan nan nan nan nan nan nan nan nan nan nan nan nan nan nan nan nan nan nan nan nan nan nan nan nan nan nan
nan 283 nan nan nan nan nan nan nan nan nan nan nan nan nan nan nan nan nan nan nan nan nan nan nan nan nan nan nan nan nan nan nan nan nan nan nan nan nan nan nan nan nan nan nan nan nan nan nan nan nan nan nan nan nan nan nan nan nan nan nan nan nan nan nan nan nan nan nan nan nan nan nan nan nan nan nan nan nan nan nan nan nan nan nan
nan nan nan nan nan nan nan nan nan nan nan nan nan nan nan nan nan nan nan nan nan nan nan nan nan nan nan nan nan nan nan nan nan nan nan nan nan nan nan nan nan nan nan nan nan nan nan nan nan nan nan nan nan nan nan nan nan nan nan nan nan nan nan nan nan nan nan nan nan nan nan nan nan nan nan nan nan nan nan nan nan nan nan nan nan
282 285 nan nan nan nan nan nan nan nan nan nan nan nan nan nan nan nan nan nan 299 295 289 nan nan nan nan nan nan nan nan nan nan nan nan nan nan nan nan nan nan nan nan nan nan nan nan nan nan nan nan nan nan nan nan nan nan nan nan nan nan nan nan nan nan nan nan nan nan nan nan nan nan nan nan nan nan nan nan nan nan nan nan nan nan
279 281 281 nan 284 nan nan nan nan nan nan nan nan nan nan nan 299 298 298 298 300 302 299 294 285 278 277 279 280 281 282 nan nan nan 264 nan 269 nan nan nan nan nan nan nan nan nan nan nan nan nan nan nan nan nan nan nan nan nan nan nan nan nan nan nan nan nan nan nan nan nan nan nan nan nan nan nan nan nan nan nan nan nan nan nan nan
278 nan nan 283 286 287 nan nan nan 288 289 290 286 nan 292 296 297 295 293 295 296 298 301 299 292 284 276 274 276 276 nan nan nan nan nan nan nan nan nan nan nan nan nan nan nan nan nan nan nan nan nan nan nan nan nan nan nan nan nan nan nan nan nan nan nan nan nan nan nan nan nan nan nan nan nan nan nan nan nan nan nan nan nan nan nan
272 270 274 284 285 286 289 290 291 289 287 281 280 278 277 286 294 294 294 292 290 290 293 295 293 286 268 254 253 252 254 nan nan 274 nan nan nan nan nan nan nan nan nan nan nan nan nan nan nan nan nan nan nan nan nan nan nan nan nan nan nan nan nan nan nan nan nan nan nan nan nan nan nan nan nan nan nan nan nan nan nan nan nan nan nan
275 275 279 283 284 283 282 285 289 286 284 278 284 282 282 283 282 289 292 291 289 286 285 287 287 288 282 268 263 267 271 274 277 nan nan nan nan nan nan nan nan nan nan nan nan nan nan nan nan nan nan nan nan nan nan nan nan nan nan nan nan nan nan nan nan nan nan nan nan nan nan nan nan nan nan nan nan nan nan nan nan nan nan nan nan
276 283 281 272 275 282 283 284 284 286 284 285 286 285 285 287 285 279 288 289 289 287 283 281 275 272 275 274 273 270 271 278 281 276 nan 267 nan nan nan nan nan nan nan nan nan nan nan nan nan nan nan nan nan nan nan nan nan nan nan nan nan nan nan nan nan nan nan nan nan nan nan nan nan nan nan nan nan nan nan nan nan nan nan nan nan
273 270 276 284 282 281 283 284 283 280 280 286 287 nan nan 285 nan nan 285 286 288 287 283 276 271 270 270 269 265 264 265 273 272 268 271 272 273 273 275 276 275 nan nan nan nan nan nan nan nan nan nan nan nan nan nan nan nan nan nan nan nan nan nan nan nan nan nan nan nan nan nan nan nan nan nan nan nan nan nan nan nan nan nan nan nan
270 273 271 275 277 269 269 271 273 273 271 280 288 290 289 nan nan nan nan 282 282 281 280 279 275 272 273 271 270 266 267 274 272 270 279 282 284 282 nan nan nan nan nan nan nan nan nan nan nan nan nan nan nan nan nan nan nan nan nan nan nan nan nan nan nan nan nan nan nan nan nan nan nan nan nan nan nan nan nan nan nan nan nan nan nan
272 272 273 272 272 278 275 274 272 276 279 290 290 288 286 288 nan nan nan 282 281 279 277 278 274 271 270 274 271 267 268 270 268 271 280 285 nan nan nan nan nan nan nan nan nan nan nan nan nan nan nan nan nan nan nan nan nan nan nan nan nan nan nan nan nan nan nan nan nan nan nan nan nan nan nan nan nan nan nan nan nan nan nan nan nan
272 274 275 274 274 280 282 278 277 278 282 287 290 287 287 289 285 nan nan 281 279 279 279 nan nan nan nan nan 259 265 266 264 268 274 277 282 279 nan nan nan nan nan nan nan nan nan nan nan nan nan nan nan nan nan nan nan nan nan nan nan nan nan nan nan nan nan nan nan nan nan nan nan nan nan nan nan nan nan nan nan nan nan nan nan nan
274 273 271 271 271 273 276 276 278 280 283 284 288 288 289 291 288 284 nan nan 278 277 nan nan nan nan nan nan nan 265 262 261 nan 274 278 nan nan nan nan nan nan nan nan nan nan nan nan nan nan nan nan nan nan nan nan nan nan nan nan nan nan nan nan nan nan nan nan nan nan nan nan nan nan nan nan nan nan nan nan nan nan nan nan nan nan
275 274 273 272 272 273 274 277 277 275 276 279 285 287 288 289 285 280 279 nan nan nan nan nan nan nan nan nan nan nan nan nan nan nan nan nan nan nan nan nan nan nan nan nan nan nan nan nan nan nan nan nan nan nan nan nan nan nan nan nan nan nan nan nan nan nan nan nan nan nan nan nan nan nan nan nan nan nan nan nan nan nan nan nan nan